Wind_Speed
11 11 10 10 9 9 10 11 13 14 13 13 14 18 23 27 30 33 36 37 39 41 42 42 43 43 43 43 44 45 41 35 28 25 27 27 25 24 23 25 25 24 25 25
8 6 6 5 6 8 10 14 18 19 19 18 20 24 27 30 33 35 36 37 38 40 41 41 41 41 42 43 45 43 38 32 28 25 22 21 20 22 24 24 24 25 26 25
5 5 5 6 8 10 12 15 18 21 24 24 25 28 30 32 34 36 36 35 35 34 35 37 39 40 42 43 41 39 35 32 29 26 22 21 20 21 22 21 21 23 24 25
6 6 5 6 6 7 8 12 14 17 21 24 27 29 32 33 34 36 35 32 30 31 33 36 38 39 40 40 38 36 35 33 31 26 24 23 21 22 21 21 22 22 22 24
5 4 2 1 1 4 6 8 11 12 14 17 19 23 26 28 31 32 33 32 30 31 33 35 37 38 40 40 40 38 37 34 33 30 28 27 26 25 25 25 24 24 24 25
3 1 1 2 3 6 10 11 11 11 10 11 15 18 21 24 25 24 27 30 31 31 32 35 38 40 42 43 43 43 41 39 37 35 34 33 32 31 31 29 28 27 28 28
5 2 2 3 4 6 9 11 10 8 10 12 15 18 20 22 22 22 21 23 25 27 30 34 38 41 44 46 47 47 46 45 44 42 41 40 39 38 37 36 36 35 34 33
9 5 3 6 8 9 10 12 13 13 15 16 17 19 20 22 24 26 26 28 30 31 34 38 41 44 46 48 49 50 50 50 49 48 48 47 46 45 44 43 42 42 42 41
11 8 7 8 10 13 14 15 15 17 17 18 20 21 22 25 28 30 32 34 36 39 42 46 48 50 52 53 54 55 55 54 54 54 53 52 52 51 50 49 48 48 47 47
11 10 10 10 12 15 17 18 18 19 19 21 22 24 27 29 31 34 37 40 42 45 48 51 53 55 57 59 61 61 62 61 60 59 58 58 57 57 56 55 55 54 53 52
11 11 12 12 13 13 15 14 16 18 20 23 26 28 30 33 36 39 41 43 46 49 51 53 56 58 60 62 64 66 67 67 66 65 64 64 63 62 61 61 60 59 58 58
10 11 13 13 14 15 16 16 18 19 22 25 29 32 34 37 40 43 45 48 50 53 56 58 60 62 64 66 68 69 70 70 69 68 67 65 64 63 62 62 63 63 63 63
10 11 11 12 13 15 17 18 20 21 23 27 30 33 37 41 44 46 48 51 54 57 59 61 63 65 67 68 68 68 67 66 65 64 62 60 57 55 54 55 56 58 61 63
10 12 12 14 15 17 18 19 20 22 25 29 33 37 40 42 45 48 51 54 57 60 62 64 66 67 67 65 64 62 60 59 58 56 54 51 48 46 44 43 44 46 50 54
10 12 14 16 18 19 19 19 22 25 28 32 35 38 41 43 46 50 53 57 59 61 64 65 65 64 62 59 58 56 55 53 53 51 50 48 46 44 42 40 39 39 40 43
11 12 13 16 19 20 19 20 24 27 30 32 35 38 41 44 47 50 54 57 60 61 62 61 60 58 56 54 54 53 53 53 53 52 51 50 48 46 43 41 39 38 38 39
11 12 14 17 20 21 21 24 28 31 33 36 39 42 45 47 49 53 57 59 61 60 59 56 54 53 52 53 54 55 55 55 55 55 54 53 51 49 47 45 42 41 40 40
13 15 18 22 25 26 27 30 33 36 38 40 43 46 49 51 53 55 58 59 58 56 53 51 51 52 54 56 57 58 58 57 57 56 55 54 52 50 49 47 45 43 40 38
17 20 23 27 29 31 32 33 36 39 41 43 45 48 50 53 53 53 56 57 55 51 51 52 53 55 57 58 59 58 57 56 56 55 54 52 51 50 49 47 45 43 42 40
20 22 24 27 29 32 33 35 38 40 42 45 47 50 53 56 57 56 57 54 50 50 51 53 55 56 58 58 58 57 55 54 53 51 50 50 49 48 47 46 45 43 42 41
19 22 24 27 30 32 35 38 39 41 44 47 50 54 57 58 59 59 55 50 48 50 52 54 56 57 58 57 56 55 54 52 51 48 46 44 43 43 43 43 43 43 42 41
21 24 26 29 32 34 36 38 41 43 46 50 52 55 57 57 58 56 52 48 48 50 52 54 55 56 56 56 55 53 51 48 46 44 41 39 37 37 38 38 39 40 39 39
21 23 26 29 32 34 37 41 44 46 48 50 52 54 56 57 56 53 49 47 48 50 52 54 56 56 55 54 52 51 47 45 42 38 35 32 30 29 30 31 33 35 35 35
21 23 25 28 31 35 38 40 42 44 46 49 51 54 55 56 55 51 48 47 47 49 51 54 56 56 54 52 50 48 46 42 38 34 30 27 24 23 22 23 25 27 28 29
21 23 25 28 31 34 36 38 40 43 46 48 50 53 55 56 55 51 47 46 47 48 50 53 55 54 53 51 48 45 43 39 35 31 26 22 18 16 15 15 17 19 21 24
22 24 27 29 31 33 36 38 41 44 47 49 51 53 54 55 54 50 46 45 46 47 50 53 54 53 52 50 46 44 41 37 34 30 25 19 14 9 6 7 9 13 16 19
Wind_Direction
235 229 225 236 238 238 233 230 226 229 233 236 238 238 240 244 251 259 268 275 279 281 283 287 291 297 301 305 305 308 308 305 298 288 274 266 259 258 260 266 266 270 273 275
217 216 219 219 238 244 242 239 232 229 237 237 235 236 238 243 251 260 269 274 277 280 284 288 293 297 300 302 304 308 312 309 305 295 288 275 272 265 268 266 264 268 269 270
207 216 217 235 247 246 245 249 246 239 238 244 247 249 252 256 261 266 270 273 275 281 286 289 292 295 297 301 305 308 309 309 307 303 292 291 285 285 281 276 271 268 267 266
233 231 253 271 264 265 266 266 265 257 250 249 253 260 265 268 270 270 271 272 272 278 282 286 288 291 295 299 303 305 307 306 305 302 296 293 290 288 287 282 279 271 268 267
263 255 253 294 317 333 324 309 296 285 267 258 257 268 277 280 279 275 270 270 273 272 276 281 285 288 292 296 301 303 304 303 302 300 298 294 290 287 285 283 280 274 271 267
311 221 110 53 20 349 334 326 314 301 288 275 274 283 291 298 295 288 276 271 273 273 274 281 286 289 293 297 300 302 303 303 301 299 296 292 288 284 281 278 275 273 269 264
41 71 43 2 354 345 333 332 328 312 301 301 300 301 304 308 314 316 306 298 294 292 289 290 292 294 296 298 300 301 302 301 300 297 294 290 286 282 278 275 272 269 266 262
36 29 345 328 326 326 326 324 328 331 329 324 319 315 314 314 318 318 317 313 308 304 300 298 297 296 297 298 299 299 299 298 296 294 291 288 284 281 278 274 271 268 265 262
11 3 329 318 318 321 320 313 320 322 323 323 324 323 319 317 318 318 317 314 311 307 305 304 303 302 301 300 299 298 296 294 292 290 287 284 282 279 276 273 270 267 264 262
355 349 332 326 318 316 315 311 308 311 319 325 326 326 325 323 322 320 317 314 312 310 309 307 306 305 304 302 301 299 297 295 292 288 285 282 279 276 274 271 269 266 264 261
344 337 329 325 319 317 317 314 311 313 318 320 323 323 323 322 321 319 317 315 313 312 310 309 308 307 305 304 302 300 299 297 294 291 288 284 280 276 272 269 266 264 262 259
335 330 328 326 322 319 318 319 321 320 320 320 317 317 321 321 321 319 318 316 315 314 313 312 310 309 307 305 303 302 300 298 297 294 292 288 285 280 275 271 266 262 259 257
340 337 334 328 323 321 321 325 325 322 319 319 317 318 320 321 321 320 319 317 315 314 314 312 311 309 307 306 304 303 301 300 299 297 295 293 290 285 280 275 269 264 259 255
342 341 340 336 334 335 332 328 326 323 321 320 320 321 322 322 321 320 319 317 316 315 314 313 311 309 307 306 304 303 301 301 300 298 297 295 293 289 284 278 271 265 259 255
342 344 342 340 340 343 339 330 326 324 324 324 324 323 323 323 322 321 319 318 317 316 314 312 310 309 307 306 305 303 302 300 298 296 294 292 290 288 285 279 273 268 261 255
339 343 344 343 343 347 345 335 328 325 325 325 325 325 325 325 324 323 320 318 317 315 314 313 312 311 309 308 306 304 301 298 295 293 290 288 285 283 280 276 273 268 263 259
336 340 343 345 345 343 341 335 331 329 331 332 331 329 328 328 327 325 322 320 319 318 317 316 315 313 311 308 306 303 301 297 294 292 289 285 282 278 275 272 270 268 264 260
344 344 344 344 342 343 342 338 336 335 335 335 333 332 332 331 330 328 324 322 321 320 320 319 318 316 313 310 307 304 301 298 294 291 288 284 280 276 272 269 268 265 262 259
348 346 344 341 340 339 339 339 338 336 337 336 335 335 333 331 330 329 326 325 324 325 324 323 321 318 316 312 309 306 303 300 296 292 288 283 279 275 271 267 264 262 259 256
345 342 336 333 334 337 338 338 339 337 336 336 336 335 335 334 334 333 330 329 328 327 326 325 323 321 319 316 313 311 308 304 300 295 290 285 279 274 269 265 261 259 256 254
336 333 329 331 334 336 338 339 338 337 339 338 339 339 339 337 335 333 332 331 329 329 329 328 326 325 323 321 319 317 313 308 304 298 294 288 281 274 268 263 259 256 253 251
331 329 329 332 335 337 337 337 340 341 341 341 341 339 338 337 335 334 333 333 332 333 333 332 331 330 328 326 324 323 320 315 311 305 298 292 284 275 267 262 257 253 251 248
329 328 328 331 333 335 338 342 343 343 342 341 339 339 339 339 338 337 336 335 335 336 336 336 336 336 334 332 331 329 327 324 320 314 306 299 289 279 270 262 255 249 246 244
325 324 327 330 334 339 342 342 342 341 340 339 339 340 341 341 340 339 339 338 338 339 340 341 341 341 340 339 338 337 335 333 330 325 317 307 297 285 272 261 251 243 238 235
322 324 328 333 337 339 339 340 341 341 340 340 341 342 343 343 343 342 341 342 342 344 345 346 346 347 347 347 347 347 346 344 342 339 334 324 310 295 276 259 243 232 225 221
323 327 331 334 336 337 339 340 342 342 342 342 343 344 345 345 345 344 344 345 347 348 349 350 351 352 353 354 355 355 355 354 354 353 351 346 336 321 291 250 227 215 209 209
Height
5872 5873 5873 5873 5873 5873 5873 5874 5873 5873 5874 5875 5873 5872 5871 5871 5871 5870 5870 5868 5866 5865 5862 5860 5856 5853 5848 5843 5838 5833 5826 5822 5819 5816 5815 5815 5816 5818 5820 5820 5819 5819 5820 5819
5870 5870 5870 5870 5870 5870 5870 5869 5869 5870 5870 5871 5870 5868 5867 5867 5867 5865 5864 5862 5859 5857 5856 5853 5850 5846 5842 5838 5835 5831 5825 5821 5818 5816 5815 5813 5812 5812 5813 5813 5813 5813 5813 5813
5866 5867 5867 5867 5867 5867 5866 5866 5866 5866 5866 5866 5866 5865 5864 5863 5863 5861 5859 5856 5853 5851 5849 5847 5844 5840 5836 5833 5829 5825 5822 5817 5815 5813 5811 5809 5808 5807 5807 5807 5807 5806 5806 5805
5864 5865 5866 5866 5865 5864 5864 5863 5862 5862 5862 5862 5863 5861 5859 5858 5857 5855 5853 5850 5848 5845 5843 5841 5838 5835 5831 5827 5823 5819 5816 5813 5810 5807 5805 5804 5803 5802 5801 5800 5799 5799 5798 5798
5864 5864 5864 5864 5863 5862 5862 5860 5859 5858 5858 5858 5858 5857 5855 5851 5849 5847 5845 5843 5841 5839 5836 5834 5830 5827 5823 5819 5815 5812 5809 5806 5803 5801 5799 5798 5797 5795 5794 5793 5793 5792 5792 5791
5864 5864 5864 5863 5862 5861 5860 5859 5857 5856 5855 5855 5854 5852 5850 5845 5842 5839 5837 5835 5833 5831 5829 5826 5822 5818 5814 5809 5805 5802 5799 5796 5794 5792 5790 5789 5788 5787 5786 5785 5784 5784 5784 5783
5864 5864 5863 5862 5861 5860 5859 5857 5855 5854 5853 5852 5850 5847 5846 5841 5837 5834 5831 5829 5825 5823 5820 5817 5814 5809 5804 5799 5795 5791 5787 5785 5783 5781 5780 5778 5777 5776 5775 5774 5774 5773 5773 5773
5863 5863 5862 5861 5859 5858 5856 5855 5853 5851 5849 5847 5845 5843 5841 5837 5833 5830 5826 5823 5819 5815 5812 5808 5804 5799 5794 5789 5784 5780 5776 5773 5770 5768 5766 5764 5763 5762 5761 5761 5761 5761 5761 5761
5863 5862 5861 5859 5858 5856 5855 5853 5851 5849 5847 5844 5841 5838 5836 5832 5827 5823 5819 5814 5810 5805 5801 5795 5790 5784 5779 5775 5770 5766 5762 5759 5756 5753 5750 5748 5746 5745 5745 5745 5745 5745 5746 5746
5862 5861 5860 5859 5857 5855 5853 5851 5849 5846 5843 5840 5837 5834 5830 5825 5821 5816 5811 5806 5801 5795 5789 5783 5777 5770 5764 5758 5752 5747 5742 5739 5736 5734 5731 5729 5727 5725 5725 5725 5725 5726 5727 5729
5862 5861 5859 5858 5855 5853 5851 5848 5845 5842 5840 5836 5833 5832 5826 5821 5816 5811 5805 5799 5793 5786 5780 5773 5765 5758 5750 5742 5735 5727 5721 5716 5712 5709 5707 5705 5703 5702 5702 5702 5703 5704 5706 5709
5862 5860 5858 5856 5853 5850 5848 5845 5842 5840 5837 5833 5829 5828 5820 5815 5809 5803 5796 5789 5782 5775 5767 5759 5751 5743 5735 5726 5717 5709 5701 5694 5689 5684 5681 5679 5676 5675 5675 5675 5677 5679 5682 5685
5860 5859 5856 5854 5853 5849 5846 5843 5840 5837 5833 5828 5824 5822 5814 5808 5801 5795 5788 5780 5772 5764 5755 5746 5737 5728 5719 5709 5700 5692 5683 5675 5669 5663 5659 5655 5652 5650 5649 5649 5649 5652 5655 5659
5859 5856 5854 5852 5848 5845 5842 5839 5836 5833 5829 5824 5819 5814 5808 5801 5794 5787 5778 5770 5761 5752 5742 5732 5723 5713 5703 5694 5685 5676 5668 5660 5653 5647 5642 5638 5634 5631 5630 5628 5628 5628 5630 5633
5858 5855 5852 5848 5846 5843 5840 5836 5832 5829 5824 5819 5814 5807 5801 5794 5786 5778 5768 5758 5749 5739 5729 5718 5708 5698 5688 5679 5670 5662 5654 5646 5639 5632 5627 5623 5620 5617 5615 5613 5612 5612 5612 5614
5856 5854 5851 5848 5844 5842 5838 5834 5829 5825 5820 5815 5809 5802 5795 5787 5779 5769 5758 5748 5738 5727 5716 5705 5694 5683 5674 5665 5656 5648 5640 5632 5625 5618 5613 5608 5604 5602 5600 5599 5598 5598 5599 5599
5854 5852 5849 5846 5843 5840 5836 5831 5825 5819 5813 5808 5800 5794 5785 5777 5768 5758 5745 5734 5722 5711 5700 5690 5680 5670 5660 5650 5641 5632 5624 5616 5608 5602 5596 5591 5588 5585 5584 5583 5583 5584 5584 5586
5852 5849 5845 5842 5839 5835 5834 5826 5819 5812 5806 5799 5792 5784 5774 5765 5757 5746 5733 5721 5710 5698 5687 5677 5667 5657 5646 5636 5625 5615 5606 5597 5589 5582 5577 5572 5569 5567 5566 5566 5567 5568 5570 5571
5848 5845 5841 5837 5834 5830 5826 5820 5813 5806 5799 5792 5784 5775 5766 5757 5748 5738 5723 5709 5697 5685 5675 5664 5653 5642 5631 5619 5607 5596 5586 5577 5569 5562 5556 5552 5548 5547 5547 5547 5549 5551 5554 5556
5845 5842 5839 5835 5830 5826 5822 5815 5807 5801 5793 5785 5776 5767 5757 5745 5733 5724 5711 5698 5686 5675 5664 5653 5641 5628 5615 5602 5590 5578 5567 5557 5549 5541 5535 5531 5528 5526 5527 5528 5531 5534 5537 5541
5844 5840 5836 5831 5826 5821 5815 5808 5802 5796 5788 5778 5767 5756 5745 5734 5723 5712 5700 5689 5677 5666 5655 5642 5629 5615 5601 5587 5574 5562 5550 5539 5530 5522 5516 5511 5508 5507 5507 5509 5513 5517 5521 5526
5840 5836 5831 5826 5821 5817 5810 5803 5796 5788 5778 5768 5758 5749 5739 5728 5716 5703 5691 5680 5669 5658 5646 5632 5618 5604 5589 5573 5560 5547 5534 5523 5513 5504 5498 5494 5490 5489 5490 5492 5496 5500 5505 5511
5837 5832 5827 5822 5818 5811 5803 5795 5787 5778 5770 5762 5754 5744 5733 5721 5709 5696 5684 5673 5661 5649 5637 5623 5609 5594 5579 5563 5548 5535 5522 5510 5500 5491 5484 5479 5476 5475 5476 5478 5481 5486 5491 5498
5832 5828 5823 5818 5811 5805 5797 5790 5784 5776 5768 5759 5749 5738 5727 5714 5701 5689 5677 5666 5654 5643 5630 5616 5601 5586 5571 5555 5540 5525 5512 5501 5490 5481 5474 5469 5466 5465 5465 5467 5470 5474 5480 5487
5827 5823 5818 5813 5808 5802 5796 5789 5782 5773 5764 5754 5744 5733 5720 5708 5695 5682 5671 5660 5648 5637 5624 5610 5594 5579 5564 5549 5534 5520 5507 5495 5485 5476 5468 5463 5460 5458 5458 5460 5463 5467 5472 5479
5822 5818 5813 5808 5803 5798 5791 5784 5776 5768 5758 5748 5738 5727 5715 5702 5689 5677 5666 5655 5644 5632 5619 5606 5591 5575 5560 5546 5532 5518 5506 5494 5484 5475 5467 5461 5458 5456 5456 5458 5461 5464 5469 5474